Time,TemperatureF,DewpointF,PressureIn,WindDirection,WindDirectionDegrees,WindSpeedMPH,WindSpeedGustMPH,Humidity,HourlyPrecipIn,Conditions,Clouds,dailyrainin,SoftwareType,DateUTC
2016-07-23 00:08:00,76.0,73.0,29.87,West,274,0.0,-999.0,90,-99.99,,,0.00,weatherlink.com 1.10,2016-07-23 04:08:00,
2016-07-23 00:23:00,75.4,73.0,29.88,West,274,0.0,-999.0,91,-99.99,,,0.00,weatherlink.com 1.10,2016-07-23 04:23:00,
2016-07-23 00:38:00,74.9,73.0,29.88,West,274,0.0,-999.0,92,-99.99,,,0.00,weatherlink.com 1.10,2016-07-23 04:38:00,
2016-07-23 00:53:00,74.5,72.0,29.87,West,274,0.0,-999.0,93,-99.99,,,0.00,weatherlink.com 1.10,2016-07-23 04:53:00,
2016-07-23 01:08:00,74.1,72.0,29.88,West,274,0.0,-999.0,93,-99.99,,,0.00,weatherlink.com 1.10,2016-07-23 05:08:00,
2016-07-23 01:23:00,73.8,72.0,29.88,West,274,0.0,-999.0,94,-99.99,,,0.00,weatherlink.com 1.10,2016-07-23 05:23:00,
2016-07-23 01:38:00,73.6,72.0,29.88,West,274,0.0,-999.0,94,-99.99,,,0.00,weatherlink.com 1.10,2016-07-23 05:38:00,
2016-07-23 01:53:00,73.4,72.0,29.88,West,274,0.0,-999.0,94,-99.99,,,0.00,weatherlink.com 1.10,2016-07-23 05:53:00,
2016-07-23 02:08:00,73.1,72.0,29.88,West,274,0.0,-999.0,95,-99.99,,,0.00,weatherlink.com 1.10,2016-07-23 06:08:00,
2016-07-23 02:23:00,72.8,71.0,29.88,West,274,0.0,-999.0,95,-99.99,,,0.00,weatherlink.com 1.10,2016-07-23 06:23:00,
2016-07-23 02:38:00,72.6,71.0,29.88,West,274,0.0,-999.0,95,-99.99,,,0.00,weatherlink.com 1.10,2016-07-23 06:38:00,
2016-07-23 02:53:00,72.2,71.0,29.88,West,274,0.0,-999.0,96,-99.99,,,0.00,weatherlink.com 1.10,2016-07-23 06:53:00,
2016-07-23 03:09:00,72.0,71.0,29.88,West,273,0.0,-999.0,96,-99.99,,,0.00,weatherlink.com 1.10,2016-07-23 07:09:00,
2016-07-23 03:23:00,71.7,71.0,29.88,West,273,0.0,-999.0,96,-99.99,,,0.00,weatherlink.com 1.10,2016-07-23 07:23:00,
2016-07-23 03:38:00,71.5,70.0,29.88,West,273,0.0,-999.0,96,-99.99,,,0.00,weatherlink.com 1.10,2016-07-23 07:38:00,
2016-07-23 03:53:00,71.3,70.0,29.88,West,273,0.0,-999.0,96,-99.99,,,0.00,weatherlink.com 1.10,2016-07-23 07:53:00,
2016-07-23 04:08:00,71.2,70.0,29.88,West,273,0.0,-999.0,96,-99.99,,,0.00,weatherlink.com 1.10,2016-07-23 08:08:00,
2016-07-23 04:23:00,70.8,70.0,29.88,West,274,0.0,-999.0,96,-99.99,,,0.00,weatherlink.com 1.10,2016-07-23 08:23:00,
2016-07-23 04:38:00,70.5,70.0,29.88,West,274,0.0,-999.0,97,-99.99,,,0.00,weatherlink.com 1.10,2016-07-23 08:38:00,
2016-07-23 04:53:00,70.4,70.0,29.87,West,274,0.0,-999.0,97,-99.99,,,0.00,weatherlink.com 1.10,2016-07-23 08:53:00,
2016-07-23 05:08:00,70.4,70.0,29.88,West,274,0.0,-999.0,97,-99.99,,,0.00,weatherlink.com 1.10,2016-07-23 09:08:00,
2016-07-23 05:23:00,70.1,69.0,29.88,West,274,0.0,-999.0,97,-99.99,,,0.00,weatherlink.com 1.10,2016-07-23 09:23:00,
2016-07-23 05:38:00,69.9,69.0,29.88,West,274,0.0,-999.0,97,-99.99,,,0.00,weatherlink.com 1.10,2016-07-23 09:38:00,
2016-07-23 05:53:00,69.8,69.0,29.88,West,274,0.0,-999.0,97,-99.99,,,0.00,weatherlink.com 1.10,2016-07-23 09:53:00,
2016-07-23 06:08:00,69.6,69.0,29.89,West,273,0.0,-999.0,97,-99.99,,,0.00,weatherlink.com 1.10,2016-07-23 10:08:00,
2016-07-23 06:23:00,69.4,69.0,29.89,West,274,0.0,-999.0,97,-99.99,,,0.00,weatherlink.com 1.10,2016-07-23 10:23:00,
2016-07-23 06:38:00,69.2,69.0,29.89,West,273,0.0,-999.0,98,-99.99,,,0.00,weatherlink.com 1.10,2016-07-23 10:38:00,
2016-07-23 06:53:00,69.2,69.0,29.89,West,273,0.0,-999.0,98,-99.99,,,0.00,weatherlink.com 1.10,2016-07-23 10:53:00,
2016-07-23 07:08:00,69.4,69.0,29.89,West,273,0.0,-999.0,98,-99.99,,,0.00,weatherlink.com 1.10,2016-07-23 11:08:00,
2016-07-23 07:23:00,69.9,69.0,29.89,West,274,0.0,-999.0,98,-99.99,,,0.00,weatherlink.com 1.10,2016-07-23 11:23:00,
2016-07-23 07:38:00,70.7,70.0,29.89,West,274,0.0,-999.0,99,-99.99,,,0.00,weatherlink.com 1.10,2016-07-23 11:38:00,
2016-07-23 07:53:00,71.6,71.0,29.90,West,274,0.0,-999.0,99,-99.99,,,0.00,weatherlink.com 1.10,2016-07-23 11:53:00,
2016-07-23 08:08:00,72.3,72.0,29.89,West,274,0.0,-999.0,99,-99.99,,,0.00,weatherlink.com 1.10,2016-07-23 12:08:00,
2016-07-23 08:23:00,73.1,73.0,29.90,West,273,0.0,-999.0,98,-99.99,,,0.00,weatherlink.com 1.10,2016-07-23 12:23:00,
2016-07-23 08:38:00,74.2,73.0,29.90,West,273,0.0,-999.0,97,-99.99,,,0.00,weatherlink.com 1.10,2016-07-23 12:38:00,
2016-07-23 08:53:00,75.8,74.0,29.90,West,273,0.0,-999.0,94,-99.99,,,0.00,weatherlink.com 1.10,2016-07-23 12:53:00,
2016-07-23 09:08:00,77.0,74.0,29.91,WNW,302,2.0,-999.0,90,-99.99,,,0.00,weatherlink.com 1.10,2016-07-23 13:08:00,
2016-07-23 09:23:00,78.7,75.0,29.90,WNW,300,0.0,-999.0,87,-99.99,,,0.00,weatherlink.com 1.10,2016-07-23 13:23:00,
2016-07-23 09:38:00,80.2,75.0,29.90,NW,305,0.0,-999.0,83,-99.99,,,0.00,weatherlink.com 1.10,2016-07-23 13:38:00,
2016-07-23 09:53:00,81.9,74.0,29.89,WNW,300,0.0,-999.0,78,-99.99,,,0.00,weatherlink.com 1.10,2016-07-23 13:53:00,
2016-07-23 10:08:00,83.2,75.0,29.89,SSW,197,0.0,-999.0,77,-99.99,,,0.00,weatherlink.com 1.10,2016-07-23 14:08:00,
2016-07-23 10:24:00,84.5,75.0,29.89,SSW,196,0.0,-999.0,73,-99.99,,,0.00,weatherlink.com 1.10,2016-07-23 14:24:00,
2016-07-23 10:39:00,85.2,75.0,29.88,SSW,196,0.0,-999.0,72,-99.99,,,0.00,weatherlink.com 1.10,2016-07-23 14:39:00,
2016-07-23 10:54:00,86.0,75.0,29.88,SSW,197,0.0,-999.0,69,-99.99,,,0.00,weatherlink.com 1.10,2016-07-23 14:54:00,
2016-07-23 11:09:00,87.3,76.0,29.88,SSW,197,0.0,-999.0,68,-99.99,,,0.00,weatherlink.com 1.10,2016-07-23 15:09:00,
2016-07-23 11:24:00,88.5,76.0,29.88,SSW,197,0.0,-999.0,66,-99.99,,,0.00,weatherlink.com 1.10,2016-07-23 15:24:00,
2016-07-23 11:39:00,89.5,76.0,29.89,West,275,0.0,-999.0,65,-99.99,,,0.00,weatherlink.com 1.10,2016-07-23 15:39:00,
2016-07-23 11:54:00,90.0,75.0,29.89,West,273,1.0,-999.0,62,-99.99,,,0.00,weatherlink.com 1.10,2016-07-23 15:54:00,
2016-07-23 12:09:00,90.5,74.0,29.89,East,80,0.0,-999.0,58,-99.99,,,0.00,weatherlink.com 1.10,2016-07-23 16:09:00,
2016-07-23 12:24:00,91.6,75.0,29.89,NW,323,0.0,-999.0,58,-99.99,,,0.00,weatherlink.com 1.10,2016-07-23 16:24:00,
2016-07-23 12:39:00,92.1,72.0,29.90,NW,324,0.0,-999.0,52,-99.99,,,0.00,weatherlink.com 1.10,2016-07-23 16:39:00,
2016-07-23 12:54:00,92.6,68.0,29.90,NNW,336,3.0,-999.0,45,-99.99,,,0.00,weatherlink.com 1.10,2016-07-23 16:54:00,
2016-07-23 13:09:00,92.4,69.0,29.89,North,5,0.0,-999.0,47,-99.99,,,0.00,weatherlink.com 1.10,2016-07-23 17:09:00,
2016-07-23 13:24:00,93.9,70.0,29.89,North,5,0.0,-999.0,45,-99.99,,,0.00,weatherlink.com 1.10,2016-07-23 17:24:00,
2016-07-23 13:39:00,93.5,68.0,29.89,NNE,28,0.0,-999.0,44,-99.99,,,0.00,weatherlink.com 1.10,2016-07-23 17:39:00,
2016-07-23 13:54:00,93.6,70.0,29.88,NE,38,0.0,-999.0,46,-99.99,,,0.00,weatherlink.com 1.10,2016-07-23 17:54:00,
2016-07-23 14:09:00,93.5,70.0,29.88,NE,38,0.0,-999.0,47,-99.99,,,0.00,weatherlink.com 1.10,2016-07-23 18:09:00,
2016-07-23 14:24:00,94.1,71.0,29.88,NE,38,0.0,-999.0,47,-99.99,,,0.00,weatherlink.com 1.10,2016-07-23 18:24:00,
2016-07-23 14:39:00,94.1,72.0,29.88,NE,48,0.0,-999.0,48,-99.99,,,0.00,weatherlink.com 1.10,2016-07-23 18:39:00,
2016-07-23 14:54:00,96.0,71.0,29.87,NE,48,0.0,-999.0,44,-99.99,,,0.00,weatherlink.com 1.10,2016-07-23 18:54:00,
2016-07-23 15:09:00,96.3,72.0,29.87,NE,48,0.0,-999.0,46,-99.99,,,0.00,weatherlink.com 1.10,2016-07-23 19:09:00,
2016-07-23 15:24:00,97.6,71.0,29.87,NE,48,0.0,-999.0,42,-99.99,,,0.00,weatherlink.com 1.10,2016-07-23 19:24:00,
2016-07-23 15:39:00,95.9,71.0,29.87,NE,48,0.0,-999.0,45,-99.99,,,0.00,weatherlink.com 1.10,2016-07-23 19:39:00,
2016-07-23 15:54:00,95.4,70.0,29.86,NE,48,0.0,-999.0,43,-99.99,,,0.00,weatherlink.com 1.10,2016-07-23 19:54:00,
2016-07-23 16:10:00,96.6,70.0,29.87,NE,48,0.0,-999.0,42,-99.99,,,0.00,weatherlink.com 1.10,2016-07-23 20:10:00,
2016-07-23 16:24:00,95.9,71.0,29.86,NE,49,0.0,-999.0,45,-99.99,,,0.00,weatherlink.com 1.10,2016-07-23 20:24:00,
2016-07-23 16:39:00,95.8,72.0,29.86,NE,49,0.0,-999.0,47,-99.99,,,0.00,weatherlink.com 1.10,2016-07-23 20:39:00,
2016-07-23 16:55:00,96.2,72.0,29.85,NE,49,0.0,-999.0,45,-99.99,,,0.00,weatherlink.com 1.10,2016-07-23 20:55:00,
2016-07-23 17:09:00,96.1,70.0,29.84,NE,49,0.0,-999.0,43,-99.99,,,0.00,weatherlink.com 1.10,2016-07-23 21:09:00,
2016-07-23 17:24:00,95.0,70.0,29.84,NE,49,0.0,-999.0,44,-99.99,,,0.00,weatherlink.com 1.10,2016-07-23 21:24:00,
2016-07-23 17:40:00,95.5,70.0,29.84,NE,49,0.0,-999.0,44,-99.99,,,0.00,weatherlink.com 1.10,2016-07-23 21:40:00,
2016-07-23 17:55:00,95.9,71.0,29.84,NNE,32,0.0,-999.0,45,-99.99,,,0.00,weatherlink.com 1.10,2016-07-23 21:55:00,
2016-07-23 18:09:00,95.1,71.0,29.84,NNE,32,0.0,-999.0,46,-99.99,,,0.00,weatherlink.com 1.10,2016-07-23 22:09:00,
2016-07-23 18:25:00,94.8,72.0,29.84,NNE,32,0.0,-999.0,47,-99.99,,,0.00,weatherlink.com 1.10,2016-07-23 22:25:00,
2016-07-23 18:39:00,94.9,72.0,29.84,NNE,32,0.0,-999.0,48,-99.99,,,0.00,weatherlink.com 1.10,2016-07-23 22:39:00,
2016-07-23 18:55:00,95.4,72.0,29.84,NNE,32,0.0,-999.0,46,-99.99,,,0.00,weatherlink.com 1.10,2016-07-23 22:55:00,